Location: Boiro
(42.6475°N, 8.8834°W)
Time: 19:17:35
(UTC+01:00)

Tiros 1 - All Passes

Search period start: 06 December 2021 00:00
Search period end: 16 December 2021 00:00
Orbit: 630 x 663 km, 48.4° (Epoch: 05 December)

Date Brightness Start Highest point End Pass type
(mag) Time Alt. Az. Time Alt. Az. Time Alt. Az.
06 Dec - 01:18:52 10° WNW 01:23:30 55° SSW 01:28:09 10° SE night (unlit)
06 Dec - 03:03:24 10° WSW 03:04:55 11° SW 03:06:26 10° SSW night (unlit)
06 Dec - 17:17:14 10° SE 17:18:15 11° SE 17:19:15 10° ESE daylight
06 Dec - 18:55:07 10° SW 18:59:37 54° SE 19:04:10 10° ENE visible
06 Dec - 20:37:19 10° W 20:41:52 52° NNW 20:46:28 10° ENE visible
06 Dec - 22:20:12 10° WNW 22:24:39 41° N 22:29:09 10° ENE visible
07 Dec - 00:02:32 10° WNW 00:07:16 79° NNE 00:12:02 10° ESE night (unlit)
07 Dec - 01:45:10 10° W 01:49:09 27° SW 01:53:10 10° SSE night (unlit)
07 Dec - 17:39:57 10° S 17:43:40 24° SE 17:47:25 10° E daylight
07 Dec - 19:20:50 10° WSW 19:25:28 84° NNW 19:30:10 10° ENE visible
07 Dec - 21:03:36 10° WNW 21:08:02 42° N 21:12:31 10° ENE visible
07 Dec - 22:46:16 10° WNW 22:50:50 50° NNE 22:55:28 10° E night (unlit)
08 Dec - 00:28:30 10° WNW 00:33:09 59° SSW 00:37:49 10° SE night (unlit)
08 Dec - 02:12:36 10° WSW 02:14:37 13° SW 02:16:38 10° SSW night (unlit)
08 Dec - 18:04:50 10° SW 18:09:18 50° SE 18:13:47 10° ENE daylight
08 Dec - 19:46:56 10° W 19:51:30 54° NNW 19:56:06 10° ENE visible
08 Dec - 21:29:50 10° WNW 21:34:16 41° N 21:38:44 10° ENE visible
08 Dec - 23:12:12 10° WNW 23:16:54 75° NNE 23:21:39 10° ESE night (unlit)
09 Dec - 00:54:45 10° W 00:58:50 29° SW 01:02:57 10° SSE night (unlit)
09 Dec - 16:49:48 10° S 16:53:22 22° SE 16:56:57 10° E daylight
09 Dec - 18:30:29 10° WSW 18:35:07 88° NNW 18:39:48 10° ENE visible
09 Dec - 20:13:13 10° W 20:17:40 42° N 20:22:08 10° ENE visible
09 Dec - 21:55:55 10° WNW 22:00:28 49° NNE 22:05:03 10° E visible
09 Dec - 23:38:09 10° WNW 23:42:48 63° SSW 23:47:30 10° SE night (unlit)
10 Dec - 01:21:56 10° WSW 01:24:19 14° SW 01:26:43 10° SSW night (unlit)
10 Dec - 17:14:34 10° SW 17:18:58 46° SE 17:23:25 10° ENE daylight
10 Dec - 18:56:34 10° W 19:01:08 56° NNW 19:05:45 10° ENE visible
10 Dec - 20:39:28 10° WNW 20:43:53 40° N 20:48:20 10° ENE visible
10 Dec - 22:21:51 10° WNW 22:26:33 71° NNE 22:31:15 10° ESE visible
11 Dec - 00:04:20 10° WNW 00:08:31 32° SW 00:12:43 10° SSE night (unlit)
11 Dec - 15:59:40 10° S 16:03:04 20° SE 16:06:29 10° E daylight
11 Dec - 17:40:09 10° WSW 17:44:46 87° SSE 17:49:27 10° ENE daylight
11 Dec - 19:22:51 10° W 19:27:16 43° N 19:31:45 10° ENE visible
11 Dec - 21:05:34 10° WNW 21:10:05 47° NNE 21:14:38 10° E visible
11 Dec - 22:47:48 10° WNW 22:52:28 68° SSW 22:57:09 10° SE night (unlit)
12 Dec - 00:31:20 10° W 00:34:01 15° SW 00:36:43 10° SSW night (unlit)
12 Dec - 16:24:19 10° SSW 16:28:39 42° SE 16:33:02 10° ENE daylight
12 Dec - 18:06:12 10° W 18:10:46 59° NNW 18:15:22 10° ENE daylight
12 Dec - 19:49:06 10° WNW 19:53:30 40° N 19:57:56 10° ENE visible
12 Dec - 21:31:31 10° WNW 21:36:11 67° NNE 21:40:52 10° ESE visible
12 Dec - 23:13:57 10° WNW 23:18:12 34° SW 23:22:27 10° SSE night (unlit)
13 Dec - 15:09:34 10° S 15:12:47 19° SE 15:15:59 10° E daylight
13 Dec - 16:49:49 10° WSW 16:54:26 82° SSE 16:59:05 10° ENE daylight
13 Dec - 18:32:28 10° W 18:36:54 44° N 18:41:22 10° ENE visible
13 Dec - 20:15:13 10° WNW 20:19:43 46° NNE 20:24:13 10° E visible
13 Dec - 21:57:27 10° WNW 22:02:07 73° SSW 22:06:49 10° SE visible
13 Dec - 23:40:48 10° W 23:43:43 16° SW 23:46:40 10° S night (unlit)
14 Dec - 15:34:03 10° SSW 15:38:20 39° SE 15:42:38 10° ENE daylight
14 Dec - 17:15:49 10° W 17:20:24 61° NNW 17:25:01 10° ENE daylight
14 Dec - 18:58:44 10° WNW 19:03:06 40° N 19:07:31 10° ENE visible
14 Dec - 20:41:10 10° WNW 20:45:48 64° NNE 20:50:28 10° ESE visible
14 Dec - 22:23:33 10° WNW 22:27:51 37° SW 22:32:11 10° SSE visible
15 Dec - 14:19:29 10° S 14:22:29 17° SE 14:25:28 10° E daylight
15 Dec - 15:59:30 10° SW 16:04:05 77° SSE 16:08:43 10° ENE daylight
15 Dec - 17:42:05 10° W 17:46:31 45° N 17:50:59 10° ENE daylight
15 Dec - 19:24:51 10° WNW 19:29:19 45° N 19:33:49 10° E visible
15 Dec - 21:07:06 10° WNW 21:11:45 78° SSW 21:16:28 10° SE visible
15 Dec - 22:50:16 10° W 22:53:25 18° SW 22:56:34 10° S night (unlit)
